• MPC Preparation (Info)

  • MPEC 2004-R47 : 2004 RW10

    The following Minor Planet Electronic Circular may be linked-to from your own Web pages, but must not otherwise be redistributed electronically.

    A form allowing access to any MPEC is at the bottom of this page.


    Read MPEC 2004-R46 Read MPEC 2004-R48


    M.P.E.C. 2004-R47                                Issued 2004 Sept.  9, 11:06 UT
    
         The Minor Planet Electronic Circulars contain information on unusual
             minor planets and routine data on comets.  They are published
       on behalf of Commission 20 of the International Astronomical Union by the
              Minor Planet Center, Smithsonian Astrophysical Observatory,
                              Cambridge, MA 02138, U.S.A.
    
                      Supported in part by the Brinson Foundation
                 Prepared using the Tamkin Foundation Computer Network
    
                                  MPC@CFA.HARVARD.EDU
              URL http://cfa-www.harvard.edu/iau/mpc.html  ISSN 1523-6714
    
                                       2004 RW10
    
    Observations:
         K04R10W* C2004 09 08.17259 20 57 29.67 -04 38 58.7          19.3   ER047704
         K04R10W  C2004 09 08.18351 20 57 32.66 -04 39 05.7          19.7   ER047704
         K04R10W  C2004 09 08.20558 20 57 38.64 -04 39 18.5          19.3   ER047704
         K04R10W  C2004 09 08.21650 20 57 41.65 -04 39 26.5          19.7   ER047704
         K04R10W  C2004 09 08.86684 21 00 43.33 -04 45 59.4                 ER047246
         K04R10W  C2004 09 08.86753 21 00 43.53 -04 45 59.6                 ER047246
         K04R10W  C2004 09 08.86839 21 00 43.78 -04 46 00.0                 ER047246
         K04R10W  C2004 09 08.86907 21 00 43.91 -04 46 00.4                 ER047246
         K04R10W  C2004 09 08.86972 21 00 44.15 -04 46 00.3                 ER047246
         K04R10W  C2004 09 08.87065 21 00 44.35 -04 46 01.3                 ER047246
         K04R10W  C2004 09 08.87178 21 00 44.68 -04 46 01.6                 ER047246
         K04R10W  C2004 09 08.87775 21 00 46.63 -04 46 07.3          19.4 R ER047J95
         K04R10W  C2004 09 08.88538 21 00 48.67 -04 46 11.2          19.1 R ER047J95
         K04R10W  C2004 09 08.89291 21 00 50.67 -04 46 15.3          19.2 R ER047J95
         K04R10W  C2004 09 09.21243 21 02 16.91 -04 49 13.8          19.6 R ER047734
         K04R10W  C2004 09 09.21389 21 02 17.22 -04 49 14.3          19.3 R ER047734
         K04R10W 5C2004 09 09.21563 21 02 18.54 -04 49 13.1          19.5 R ER047673
         K04R10W  C2004 09 09.21682 21 02 18.04 -04 49 16.2          19.5 R ER047734
         K04R10W 5C2004 09 09.21817 21 02 19.12 -04 49 14.5                 ER047673
         K04R10W  C2004 09 09.21828 21 02 18.43 -04 49 16.9          19.4 R ER047734
         K04R10W 5C2004 09 09.22049 21 02 19.77 -04 49 16.1                 ER047673
         K04R10W 5C2004 09 09.22269 21 02 20.29 -04 49 17.0                 ER047673
         K04R10W  C2004 09 09.35177 21 02 53.23 -04 50 27.3          19.4 R ER047854
         K04R10W  C2004 09 09.35885 21 02 55.01 -04 50 32.2          19.4 R ER047854
         K04R10W  C2004 09 09.36592 21 02 56.78 -04 50 36.8          19.4 R ER047854
    
    Observer details:
    246 Klet Observatory-KLENOT.  Observer M. Tichy.  1.06-m KLENOT Telescope
        + CCD.
    673 Table Mountain Observatory, Wrightwood.  Observer J. Young.  0.6-m
        reflector + CCD.
    704 Lincoln Laboratory ETS, New Mexico.  Observers M. Blythe, F. Shelly,
        M. Bezpalko, R. Huber, L. Manguso, D. Torres, R. Kracke, M. McCleary,
        H. Stange, A. Milner.  Measurers J. Stuart, R. Sayer, J. Evans, J. Kommers.
        1.0-m f/2.15 reflector + CCD.
    734 Farpoint Observatory.  Observer W. Leifer.  Measurer G. Hug.  0.4-m f/6
        Schmidt-Cassegrain + CCD.
    854 Sabino Canyon Observatory, Tucson.  Observer J. E. McGaha.  0.36-m f/10.0
        Schmidt-Cassegrain + CCD.
    J95 Great Shefford.  Observer P. Birtwhistle.  0.30-m f/6.3 Schmidt-Cassegrain
        + CCD.
    
    Orbital elements:
    2004 RW10                                                            PHA 0.037
    Epoch 2004 Aug. 23.0 TT = JDT 2453240.5                 MPC
    M  12.25025              (2000.0)            P               Q
    n   0.30196598     Peri.   69.09617     +0.13047218     +0.99113556
    a   2.2003784      Node   208.43629     -0.92806676     +0.11320424
    e   0.5601289      Incl.    3.01503     -0.34881099     +0.06953489
    P   3.26           H   21.2           G   0.15
    From 25 observations 2004 Sept. 8-9.
    
    Ephemeris:
    2004 RW10                a,e,i = 2.20, 0.56, 3                   q = 0.9679
    Date    TT    R. A. (2000) Decl.     Delta      r     Elong.  Phase     V
    2004 09 02    20 22.60   -03 19.4    0.182    1.161   144.2    30.6    19.1
    2004 09 12    21 13.98   -05 12.6    0.255    1.230   148.2    25.5    19.8
    2004 09 22    21 45.93   -06 04.8    0.343    1.304   146.7    25.0    20.6
    2004 10 02    22 08.82   -06 20.1    0.444    1.380   142.6    26.1    21.3
    2004 10 12    22 27.26   -06 10.3    0.558    1.458   137.2    27.7    22.0
    
    Timothy B. Spahr             (C) Copyright 2004 MPC           M.P.E.C. 2004-R47
    

    Read MPEC 2004-R46 Read MPEC 2004-R48


    MPEC number:

    Enter an MPEC number in one of the following forms:

    • 1997-B01 (the full form)
    • J97B01 (the packed version of the full form)
    • B01 (the abbreviated form)